UAL1950 KIAH-KMFE

Flight info

Callsign UAL1950
Flight time 1h 0m
Altitude 34000
Route RITAA7 NGP
Aircraft B739/M-SDE2E3FGHIRWXY/LB1

Departure

Time 2026-05-06 18:52
Airport George Bush Intercontinental Airport (KIAH)

Arrival

Time 2026-05-06 19:53
Airport McAllen Miller International Airport (KMFE)
Time Latitude Longitude Altitude Speed Heading
2026-05-06 18:29 29.98429 -95.33592 106 ft 0 kts 90°
2026-05-06 18:41 29.98429 -95.33594 125 ft 2 kts 90°
2026-05-06 18:41 29.98429 -95.33622 106 ft 2 kts 90°
2026-05-06 18:42 29.98429 -95.33648 106 ft 4 kts 93°
2026-05-06 18:42 29.98433 -95.33678 106 ft 4 kts 117°
2026-05-06 18:42 29.98447 -95.33693 103 ft 3 kts 180°
2026-05-06 18:42 29.98469 -95.33693 105 ft 0 kts 180°
2026-05-06 18:44 29.98449 -95.33693 104 ft 6 kts 180°
2026-05-06 18:45 29.98393 -95.33693 106 ft 10 kts 180°
2026-05-06 18:45 29.98336 -95.33729 106 ft 10 kts 244°
2026-05-06 18:45 29.98322 -95.33816 106 ft 12 kts 263°
2026-05-06 18:45 29.98319 -95.33917 106 ft 13 kts 270°
2026-05-06 18:46 29.98308 -95.34027 104 ft 15 kts 253°
2026-05-06 18:46 29.98303 -95.34147 106 ft 16 kts 270°
2026-05-06 18:46 29.98303 -95.34282 106 ft 18 kts 269°
2026-05-06 18:46 29.98285 -95.34427 106 ft 19 kts 247°
2026-05-06 18:47 29.98258 -95.34573 106 ft 18 kts 268°
2026-05-06 18:47 29.98257 -95.34718 106 ft 18 kts 269°
2026-05-06 18:47 29.98257 -95.34858 106 ft 17 kts 270°
2026-05-06 18:47 29.98257 -95.34992 106 ft 16 kts 270°
2026-05-06 18:48 29.98233 -95.35116 106 ft 16 kts 242°
2026-05-06 18:48 29.98204 -95.35193 106 ft 8 kts 268°
2026-05-06 18:48 29.98247 -95.35239 106 ft 11 kts 331°
2026-05-06 18:48 29.98330 -95.35292 106 ft 17 kts 331°
2026-05-06 18:49 29.98437 -95.35357 105 ft 17 kts 332°
2026-05-06 18:49 29.98531 -95.35414 105 ft 11 kts 332°
2026-05-06 18:49 29.98597 -95.35454 106 ft 10 kts 332°
2026-05-06 18:49 29.98639 -95.35479 105 ft 0 kts 333°
2026-05-06 18:50 29.98641 -95.35481 105 ft 2 kts 333°
2026-05-06 18:50 29.98691 -95.35510 106 ft 14 kts 332°
2026-05-06 18:50 29.98769 -95.35572 106 ft 13 kts 298°
2026-05-06 18:51 29.98740 -95.35688 106 ft 14 kts 242°
2026-05-06 18:51 29.98696 -95.35729 107 ft 10 kts 161°
2026-05-06 18:51 29.98501 -95.35610 107 ft 64 kts 152°
2026-05-06 18:51 29.97910 -95.35247 108 ft 125 kts 152°
2026-05-06 18:52 29.97012 -95.34700 127 ft 167 kts 153°
2026-05-06 18:52 29.95970 -95.34032 657 ft 169 kts 153°
2026-05-06 18:52 29.95088 -95.33150 1258 ft 171 kts 126°
2026-05-06 18:52 29.94431 -95.32034 1838 ft 170 kts 131°
2026-05-06 18:53 29.93653 -95.30889 2027 ft 194 kts 132°
2026-05-06 18:53 29.92775 -95.29608 2233 ft 214 kts 132°
2026-05-06 18:53 29.91809 -95.28208 2422 ft 231 kts 132°
2026-05-06 18:53 29.90765 -95.26692 2570 ft 251 kts 132°
2026-05-06 18:54 29.89657 -95.25084 3048 ft 264 kts 132°
2026-05-06 18:54 29.88449 -95.23470 3797 ft 265 kts 146°
2026-05-06 18:54 29.86812 -95.22681 4620 ft 255 kts 179°
2026-05-06 18:54 29.85131 -95.23066 5439 ft 247 kts 201°
2026-05-06 18:55 29.83471 -95.23741 5976 ft 256 kts 201°
2026-05-06 18:55 29.81773 -95.24439 6571 ft 263 kts 201°
2026-05-06 18:55 29.80058 -95.25149 7189 ft 266 kts 201°
2026-05-06 18:55 29.78314 -95.25869 7881 ft 267 kts 201°
2026-05-06 18:56 29.76556 -95.26595 8559 ft 269 kts 201°
2026-05-06 18:56 29.74778 -95.27328 9220 ft 272 kts 201°
2026-05-06 18:56 29.73009 -95.28055 9877 ft 274 kts 201°
2026-05-06 18:56 29.71197 -95.28799 10364 ft 282 kts 202°
2026-05-06 18:57 29.69275 -95.29591 10484 ft 302 kts 202°
2026-05-06 18:57 29.67232 -95.30432 10615 ft 320 kts 202°
2026-05-06 18:57 29.65070 -95.31320 10745 ft 337 kts 201°
2026-05-06 18:57 29.62836 -95.32235 10973 ft 349 kts 201°
2026-05-06 18:58 29.60523 -95.33182 11470 ft 354 kts 202°
2026-05-06 18:58 29.58188 -95.34137 11923 ft 361 kts 201°
2026-05-06 18:58 29.55811 -95.35101 12594 ft 361 kts 201°
2026-05-06 18:58 29.53444 -95.36069 13303 ft 361 kts 201°
2026-05-06 18:59 29.51067 -95.37042 13863 ft 362 kts 201°
2026-05-06 18:59 29.48714 -95.38000 14313 ft 364 kts 202°
2026-05-06 18:59 29.46316 -95.38977 14795 ft 366 kts 202°
2026-05-06 18:59 29.43906 -95.39957 15301 ft 367 kts 202°
2026-05-06 19:00 29.41493 -95.40940 15775 ft 369 kts 202°
2026-05-06 19:00 29.39068 -95.41927 16230 ft 371 kts 202°
2026-05-06 19:00 29.36622 -95.42923 16721 ft 373 kts 202°
2026-05-06 19:00 29.34203 -95.43906 17188 ft 374 kts 203°
2026-05-06 19:01 29.31738 -95.44909 17670 ft 376 kts 203°
2026-05-06 19:01 29.29264 -95.45913 18147 ft 378 kts 203°
2026-05-06 19:01 29.26781 -95.46921 18541 ft 380 kts 203°
2026-05-06 19:01 29.24286 -95.47935 18918 ft 382 kts 204°
2026-05-06 19:02 29.21759 -95.48960 19278 ft 384 kts 204°
2026-05-06 19:02 29.19231 -95.49986 19678 ft 386 kts 204°
2026-05-06 19:02 29.16719 -95.51004 20059 ft 388 kts 204°
2026-05-06 19:02 29.14163 -95.52040 20433 ft 390 kts 204°
2026-05-06 19:03 29.11594 -95.53081 20731 ft 394 kts 204°
2026-05-06 19:03 29.08993 -95.54133 21065 ft 396 kts 204°
2026-05-06 19:03 29.06386 -95.55187 21456 ft 398 kts 204°
2026-05-06 19:03 29.03797 -95.56233 21820 ft 399 kts 204°
2026-05-06 19:04 29.01168 -95.57296 22171 ft 401 kts 204°
2026-05-06 19:04 28.98528 -95.58362 22485 ft 403 kts 204°
2026-05-06 19:04 28.95875 -95.59433 22811 ft 405 kts 204°
2026-05-06 19:04 28.93248 -95.60609 23113 ft 404 kts 211°
2026-05-06 19:05 28.90853 -95.62266 23414 ft 401 kts 218°
2026-05-06 19:05 28.88659 -95.64232 23681 ft 400 kts 224°
2026-05-06 19:05 28.86733 -95.66511 23928 ft 400 kts 232°
2026-05-06 19:05 28.84981 -95.68975 24194 ft 400 kts 232°
2026-05-06 19:06 28.83254 -95.71427 24435 ft 401 kts 232°
2026-05-06 19:06 28.81495 -95.73926 24643 ft 405 kts 232°
2026-05-06 19:06 28.79727 -95.76431 24883 ft 406 kts 232°
2026-05-06 19:06 28.77945 -95.78944 25140 ft 407 kts 232°
2026-05-06 19:07 28.76162 -95.81452 25388 ft 408 kts 232°
2026-05-06 19:07 28.74977 -95.83116 25534 ft 409 kts 232°
2026-05-06 19:07 28.72570 -95.86488 25855 ft 411 kts 232°
2026-05-06 19:07 28.70761 -95.89018 26091 ft 411 kts 232°
2026-05-06 19:08 28.68949 -95.91551 26314 ft 413 kts 232°
2026-05-06 19:08 28.67153 -95.94059 26515 ft 414 kts 232°
2026-05-06 19:08 28.65324 -95.96613 26740 ft 415 kts 232°
2026-05-06 19:08 28.63493 -95.99167 26959 ft 416 kts 232°
2026-05-06 19:09 28.61659 -96.01724 27166 ft 417 kts 232°
2026-05-06 19:09 28.59822 -96.04283 27376 ft 418 kts 232°
2026-05-06 19:09 28.57998 -96.06824 27647 ft 417 kts 232°
2026-05-06 19:09 28.56165 -96.09374 27998 ft 415 kts 232°
2026-05-06 19:10 28.54342 -96.11908 28414 ft 412 kts 232°
2026-05-06 19:10 28.52531 -96.14425 28831 ft 409 kts 232°
2026-05-06 19:10 28.50746 -96.16905 29079 ft 410 kts 232°
2026-05-06 19:10 28.48914 -96.19449 29351 ft 411 kts 232°
2026-05-06 19:11 28.47122 -96.21937 29636 ft 411 kts 232°
2026-05-06 19:11 28.45304 -96.24459 29949 ft 411 kts 232°
2026-05-06 19:11 28.43487 -96.26977 30257 ft 410 kts 232°
2026-05-06 19:11 28.41678 -96.29483 30587 ft 408 kts 232°
2026-05-06 19:12 28.39878 -96.31974 30922 ft 407 kts 232°
2026-05-06 19:12 28.38105 -96.34427 31236 ft 407 kts 233°
2026-05-06 19:12 28.36310 -96.36910 31533 ft 407 kts 233°
2026-05-06 19:12 28.34513 -96.39394 31856 ft 406 kts 233°
2026-05-06 19:13 28.32720 -96.41870 32197 ft 405 kts 233°
2026-05-06 19:13 28.30929 -96.44342 32537 ft 404 kts 233°
2026-05-06 19:13 28.29141 -96.46807 32871 ft 404 kts 233°
2026-05-06 19:13 28.27359 -96.49265 33228 ft 402 kts 233°
2026-05-06 19:14 28.25583 -96.51711 33587 ft 401 kts 233°
2026-05-06 19:14 28.23838 -96.54115 33865 ft 401 kts 233°
2026-05-06 19:14 28.22055 -96.56570 33852 ft 404 kts 233°
2026-05-06 19:15 28.18480 -96.61487 33871 ft 403 kts 233°
2026-05-06 19:15 28.14903 -96.66399 33880 ft 403 kts 233°
2026-05-06 19:16 28.11316 -96.71320 33874 ft 404 kts 233°
2026-05-06 19:16 28.07753 -96.76202 33870 ft 404 kts 233°
2026-05-06 19:17 28.04158 -96.81123 33869 ft 404 kts 233°
2026-05-06 19:17 28.00565 -96.86036 33865 ft 404 kts 232°
2026-05-06 19:18 27.96997 -96.90908 33870 ft 404 kts 232°
2026-05-06 19:18 27.93410 -96.95801 33886 ft 404 kts 232°
2026-05-06 19:19 27.89820 -97.00694 33894 ft 403 kts 232°
2026-05-06 19:19 27.86247 -97.05556 33888 ft 403 kts 232°
2026-05-06 19:20 27.82652 -97.10444 33904 ft 404 kts 232°
2026-05-06 19:20 27.79659 -97.14509 33900 ft 404 kts 232°
2026-05-06 19:21 27.76071 -97.19377 33890 ft 405 kts 232°
2026-05-06 19:21 27.71868 -97.25075 33878 ft 405 kts 232°
2026-05-06 19:22 27.68763 -97.29105 33877 ft 407 kts 227°
2026-05-06 19:22 27.66641 -97.31181 33774 ft 411 kts 220°
2026-05-06 19:22 27.64280 -97.33098 33032 ft 421 kts 219°
2026-05-06 19:22 27.61899 -97.34993 32462 ft 416 kts 219°
2026-05-06 19:23 27.59539 -97.36862 31884 ft 411 kts 219°
2026-05-06 19:23 27.57213 -97.38711 31330 ft 406 kts 219°
2026-05-06 19:23 27.54929 -97.40534 30557 ft 407 kts 219°
2026-05-06 19:23 27.52632 -97.42375 30017 ft 402 kts 219°
2026-05-06 19:24 27.50364 -97.44196 29410 ft 398 kts 219°
2026-05-06 19:24 27.48127 -97.45993 28874 ft 392 kts 219°
2026-05-06 19:24 27.45948 -97.47744 28380 ft 385 kts 219°
2026-05-06 19:24 27.43781 -97.49485 27869 ft 380 kts 219°
2026-05-06 19:25 27.41642 -97.51204 27352 ft 375 kts 218°
2026-05-06 19:25 27.39519 -97.52909 26839 ft 371 kts 218°
2026-05-06 19:25 27.37424 -97.54592 26329 ft 368 kts 218°
2026-05-06 19:25 27.35347 -97.56259 25827 ft 365 kts 218°
2026-05-06 19:26 27.33312 -97.57891 25339 ft 363 kts 218°
2026-05-06 19:26 27.31249 -97.59550 24832 ft 363 kts 219°
2026-05-06 19:26 27.29190 -97.61213 24301 ft 364 kts 218°
2026-05-06 19:26 27.27128 -97.62865 23806 ft 363 kts 218°
2026-05-06 19:27 27.25063 -97.64522 23201 ft 366 kts 218°
2026-05-06 19:27 27.23018 -97.66151 22667 ft 363 kts 217°
2026-05-06 19:27 27.20960 -97.67792 22157 ft 362 kts 217°
2026-05-06 19:27 27.18904 -97.69428 21642 ft 361 kts 217°
2026-05-06 19:28 27.16861 -97.71061 21114 ft 360 kts 217°
2026-05-06 19:28 27.14815 -97.72695 20598 ft 358 kts 217°
2026-05-06 19:28 27.12796 -97.74305 20104 ft 353 kts 217°
2026-05-06 19:28 27.10818 -97.75882 19632 ft 350 kts 217°
2026-05-06 19:29 27.08834 -97.77464 19153 ft 347 kts 217°
2026-05-06 19:29 27.06870 -97.79030 18676 ft 345 kts 217°
2026-05-06 19:29 27.04915 -97.80588 18183 ft 343 kts 217°
2026-05-06 19:29 27.02997 -97.82116 17668 ft 341 kts 217°
2026-05-06 19:30 27.01064 -97.83654 17138 ft 338 kts 217°
2026-05-06 19:30 26.99151 -97.85177 16671 ft 335 kts 217°
2026-05-06 19:30 26.97256 -97.86684 16201 ft 332 kts 217°
2026-05-06 19:30 26.95376 -97.88178 15734 ft 329 kts 217°
2026-05-06 19:31 26.93539 -97.89639 15360 ft 325 kts 217°
2026-05-06 19:31 26.91704 -97.91096 14965 ft 321 kts 217°
2026-05-06 19:31 26.88067 -97.93984 14100 ft 318 kts 217°
2026-05-06 19:32 26.86281 -97.95402 13672 ft 317 kts 217°
2026-05-06 19:32 26.84476 -97.96834 13196 ft 316 kts 217°
2026-05-06 19:32 26.82684 -97.98255 12733 ft 315 kts 217°
2026-05-06 19:32 26.80894 -97.99674 12282 ft 314 kts 217°
2026-05-06 19:33 26.79118 -98.01081 11847 ft 312 kts 217°
2026-05-06 19:33 26.77342 -98.02487 11409 ft 311 kts 217°
2026-05-06 19:33 26.75570 -98.03890 10968 ft 311 kts 217°
2026-05-06 19:33 26.73830 -98.05268 10581 ft 309 kts 217°
2026-05-06 19:34 26.72098 -98.06637 10421 ft 300 kts 217°
2026-05-06 19:34 26.70418 -98.07964 10286 ft 290 kts 217°
2026-05-06 19:34 26.68799 -98.09244 10148 ft 280 kts 217°
2026-05-06 19:34 26.67230 -98.10483 10038 ft 271 kts 217°
2026-05-06 19:35 26.65700 -98.11691 9782 ft 269 kts 217°
2026-05-06 19:35 26.64190 -98.12885 9473 ft 269 kts 217°
2026-05-06 19:35 26.62659 -98.14094 9127 ft 270 kts 217°
2026-05-06 19:35 26.61127 -98.15303 8804 ft 269 kts 217°
2026-05-06 19:36 26.59599 -98.16509 8480 ft 268 kts 217°
2026-05-06 19:36 26.58065 -98.17719 8165 ft 269 kts 217°
2026-05-06 19:36 26.56529 -98.18931 7841 ft 271 kts 217°
2026-05-06 19:36 26.54996 -98.20139 7528 ft 273 kts 217°
2026-05-06 19:37 26.53435 -98.21370 7175 ft 275 kts 217°
2026-05-06 19:37 26.51868 -98.22604 6842 ft 275 kts 217°
2026-05-06 19:37 26.50304 -98.23835 6511 ft 276 kts 217°
2026-05-06 19:37 26.48735 -98.25070 6174 ft 276 kts 216°
2026-05-06 19:38 26.47165 -98.26305 5820 ft 276 kts 217°
2026-05-06 19:38 26.45594 -98.27542 5493 ft 276 kts 216°
2026-05-06 19:38 26.44025 -98.28776 5169 ft 274 kts 216°
2026-05-06 19:38 26.42488 -98.29984 4853 ft 273 kts 215°
2026-05-06 19:39 26.40937 -98.31203 4534 ft 272 kts 215°
2026-05-06 19:39 26.39391 -98.32417 4206 ft 271 kts 215°
2026-05-06 19:39 26.37847 -98.33629 3947 ft 267 kts 215°
2026-05-06 19:39 26.36351 -98.34803 3816 ft 259 kts 216°
2026-05-06 19:40 26.34895 -98.35943 3690 ft 251 kts 216°
2026-05-06 19:40 26.33416 -98.36893 3462 ft 248 kts 194°
2026-05-06 19:40 26.31745 -98.36816 3312 ft 242 kts 157°
2026-05-06 19:40 26.30347 -98.35785 3055 ft 241 kts 139°
2026-05-06 19:41 26.29078 -98.34543 2743 ft 243 kts 139°
2026-05-06 19:41 26.27776 -98.33344 2439 ft 244 kts 144°
2026-05-06 19:41 26.26455 -98.32123 2135 ft 248 kts 142°
2026-05-06 19:41 26.25116 -98.30881 1808 ft 252 kts 141°
2026-05-06 19:42 26.23772 -98.29650 1506 ft 253 kts 143°
2026-05-06 19:42 26.22432 -98.28424 1170 ft 241 kts 143°
2026-05-06 19:42 26.21192 -98.27287 946 ft 218 kts 143°
2026-05-06 19:42 26.20124 -98.26308 1300 ft 190 kts 144°
2026-05-06 19:43 26.19090 -98.25364 1362 ft 196 kts 143°
2026-05-06 19:43 26.17984 -98.24349 1732 ft 210 kts 141°
2026-05-06 19:43 26.17099 -98.23027 1898 ft 215 kts 110°
2026-05-06 19:43 26.16900 -98.21377 1971 ft 219 kts 92°
2026-05-06 19:44 26.17184 -98.19654 1985 ft 235 kts 71°
2026-05-06 19:44 26.18081 -98.18118 1990 ft 243 kts 44°
2026-05-06 19:44 26.19498 -98.17131 1999 ft 240 kts 18°
2026-05-06 19:44 26.21102 -98.16935 1995 ft 233 kts 352°
2026-05-06 19:45 26.22605 -98.17511 1996 ft 227 kts 327°
2026-05-06 19:45 26.23871 -98.18556 2001 ft 227 kts 321°
2026-05-06 19:45 26.25146 -98.19642 2006 ft 231 kts 320°
2026-05-06 19:45 26.26433 -98.20730 2000 ft 232 kts 320°
2026-05-06 19:46 26.27729 -98.21810 1994 ft 232 kts 320°
2026-05-06 19:46 26.29013 -98.22879 1994 ft 233 kts 321°
2026-05-06 19:46 26.30299 -98.23973 1986 ft 232 kts 319°
2026-05-06 19:46 26.31589 -98.25058 2020 ft 229 kts 321°
2026-05-06 19:47 26.32824 -98.26085 1988 ft 213 kts 321°
2026-05-06 19:47 26.34004 -98.27057 2005 ft 209 kts 320°
2026-05-06 19:47 26.34972 -98.28184 1973 ft 197 kts 289°
2026-05-06 19:47 26.34986 -98.29596 2011 ft 180 kts 249°
2026-05-06 19:48 26.34579 -98.30962 2004 ft 190 kts 251°
2026-05-06 19:48 26.34073 -98.32334 1989 ft 192 kts 233°
2026-05-06 19:48 26.33178 -98.33388 1991 ft 185 kts 218°
2026-05-06 19:48 26.32102 -98.34108 1990 ft 177 kts 200°
2026-05-06 19:49 26.30910 -98.34385 2013 ft 177 kts 183°
2026-05-06 19:49 26.29813 -98.33825 1676 ft 188 kts 139°
2026-05-06 19:49 26.28817 -98.33012 1708 ft 171 kts 160°
2026-05-06 19:49 26.27700 -98.32562 1644 ft 173 kts 155°
2026-05-06 19:50 26.26729 -98.31817 1825 ft 167 kts 148°
2026-05-06 19:50 26.25753 -98.31047 1973 ft 172 kts 149°
2026-05-06 19:50 26.24795 -98.30286 1922 ft 170 kts 145°
2026-05-06 19:50 26.23875 -98.29475 1664 ft 163 kts 145°
2026-05-06 19:51 26.23047 -98.28749 1493 ft 148 kts 146°
2026-05-06 19:51 26.22236 -98.28062 1144 ft 147 kts 146°
2026-05-06 19:51 26.21419 -98.27376 844 ft 148 kts 147°
2026-05-06 19:51 26.20601 -98.26716 753 ft 144 kts 147°
2026-05-06 19:52 26.19806 -98.26010 525 ft 147 kts 141°
2026-05-06 19:52 26.19023 -98.25289 334 ft 149 kts 141°
2026-05-06 19:52 26.18219 -98.24561 144 ft 147 kts 141°
2026-05-06 19:52 26.17490 -98.23901 110 ft 110 kts 140°
2026-05-06 19:53 26.17067 -98.23517 109 ft 47 kts 141°
2026-05-06 19:53 26.16998 -98.23421 108 ft 12 kts 82°
2026-05-06 19:53 26.17046 -98.23357 102 ft 9 kts 16°
2026-05-06 19:53 26.17101 -98.23390 102 ft 11 kts 322°
2026-05-06 19:54 26.17177 -98.23460 102 ft 18 kts 320°
2026-05-06 19:54 26.17294 -98.23566 102 ft 25 kts 321°
2026-05-06 19:54 26.17443 -98.23699 107 ft 28 kts 321°
2026-05-06 19:54 26.17600 -98.23842 102 ft 29 kts 320°
2026-05-06 19:55 26.17748 -98.23978 100 ft 26 kts 321°
2026-05-06 19:55 26.17853 -98.24072 102 ft 11 kts 321°
2026-05-06 19:55 26.17914 -98.24100 101 ft 10 kts
2026-05-06 19:55 26.17927 -98.24098 101 ft 1 kts
2026-05-06 19:56 26.17956 -98.24094 100 ft 7 kts
2026-05-06 19:56 26.18000 -98.24067 100 ft 7 kts 84°
2026-05-06 19:56 26.18001 -98.24031 100 ft 0 kts 87°